Regional Weather Roundup
Issued by NWS Wilmington, NC

Home | Current Version | Previous Version | Text Only | Print | Product List | Glossary On
Versions: 1 2 3 4 5 6 7 8 9 10 11 12 13 14 15 16 17 18 19 20 21 22 23 24 25 26 27
000
ASUS42 KILM 031012
RWRILM
RWRILM
REGIONAL HOURLY WEATHER ROUNDUP
NATIONAL WEATHER SERVICE WILMINGTON NC
600 AM EDT TUE AUG 03 2021

NOTE: "FAIR" INDICATES FEW OR NO CLOUDS BELOW 12,000 FEET WITH NO
SIGNIFICANT WEATHER AND/OR OBSTRUCTIONS TO VISIBILITY.

...............WFO WILMINGTON COUNTY WARNING AREA...............

......COASTAL NC AND SC COUNTIES......

CITY           SKY/WX    TMP DP  RH WIND       PRES   REMARKS
WILMINGTON     CLOUDY    74  72  93 N8        29.95R
N MYRTLE BEACH MOCLDY    73  72  96 NE5       29.94R
MYRTLE BEACH   MOCLDY    74  74 100 CALM      29.95R

......INLAND NC AND SC COUNTIES.......

CITY           SKY/WX    TMP DP  RH WIND       PRES   REMARKS
LUMBERTON      NOT AVBL
ELIZABETHTOWN  MOCLDY    70  69  96 NE5       29.97F
WHITEVILLE     CLOUDY    74  71  92 NE3       29.97R
FLORENCE       CLOUDY    75  71  87 E10       29.96R
DARLINGTON     NOT AVBL
KINGSTREE      CLOUDY    73  72  94 CALM      29.94S FOG
HARTSVILLE     CLOUDY    73  72  94 NE9       29.97S
BENNETTSVILLE  CLOUDY    73  72  94 NE6       29.96S
CONWAY         FAIR      72  72 100 NE5       29.95R
GEORGETOWN     FAIR      72  72 100 CALM      29.95R
MARION         CLOUDY    72  72 100 E6        29.96R

....................REST OF NORTH CAROLINA......................

.........EASTERN NC.........

CITY           SKY/WX    TMP DP  RH WIND       PRES   REMARKS
CAPE HATTERAS  MOCLDY    74  72  93 E5        29.96F
JACKSONVILLE   PTCLDY    70  67  90 NE7       29.98S
MOREHEAD CITY  MOCLDY    75  74  96 N5        29.95R
KENANSVILLE    MOCLDY    68  64  88 NE6       29.99R
NEW BERN       MOCLDY    72  69  90 N8        29.98S
ELIZABETH CITY MOCLDY    75  67  76 NE12      30.02S

.........CENTRAL NC.........

CITY           SKY/WX    TMP DP  RH WIND       PRES   REMARKS
RALEIGH DURHAM CLOUDY    70  65  84 NE5       30.03R
ROCKY MOUNT    MOCLDY    71  65  81 NE3       30.02S
ROANOKE RAPIDS NOT AVBL
FAYETTEVILLE   CLOUDY    72  66  81 NE7       29.98S
HOFFMAN        CLOUDY    73  70  88 E3        29.97R

.........WESTERN NC.........

CITY           SKY/WX    TMP DP  RH WIND       PRES   REMARKS
CHARLOTTE      LGT RAIN  71  68  90 NE6       30.02R FOG
GREENSBORO     CLOUDY    69  63  81 NE9       30.05R
HICKORY        NOT AVBL
BOONE          NOT AVBL
ASHEVILLE      NOT AVBL

.....................REST OF SOUTH CAROLINA.....................

.........EASTERN SC.........

CITY           SKY/WX    TMP DP  RH WIND       PRES   REMARKS
CHARLESTON     MOCLDY    74  71  91 CALM      29.93S
BEAUFORT MCAS  MOCLDY    76  73  91 CALM      29.93S
HILTON HEAD    NOT AVBL

.........CENTRAL SC.........

CITY           SKY/WX    TMP DP  RH WIND       PRES   REMARKS
COLUMBIA       CLOUDY    76  71  85 NE7       29.95R
ORANGEBURG     LGT RAIN  73  73 100 CALM      29.95S
SUMTER SHAW    DRIZZLE   73  72  94 NE7       29.95R

.........WESTERN SC.........

CITY           SKY/WX    TMP DP  RH WIND       PRES   REMARKS
GREENVILLE     NOT AVBL
ROCK HILL      LGT RAIN  70  68  93 CALM      30.02R FOG
ANDERSON       LGT RAIN  69  67  93 NE3       30.00R
CLEMSON        NOT AVBL
GREENWOOD      LGT RAIN  69  69 100 NE5       29.99F FOG


...................COASTAL AND OFFSHORE REPORTS..................

................LOCAL PIERS AND NC RESERVE................


STATION/POSITION TIME  SKY/WX   TEMP    WIND        PRES    VSBY
                                AIR SEA DIR/SP/G
                 (UTC)          (F)     (DEG/KT/KT) (MB)    (MI)
JOHNY MRCER PIER 0930            74 83  360/ 10/ 12 1013.4F
NC RESRV MASNBRO NOT AVBL
OCEAN CREST PIER NOT AVBL
SPRINGMAID  PIER 0930            74                   N/A


................COASTAL AND OFFSHORE BUOYS................


STATION/POSITION TIME  SKY/WX   TEMP    WIND        PRES    VSBY
                                AIR SEA DIR/SP/G
                 (UTC)          (F)     (DEG/KT/KT) (MB)    (MI)
DIMNDSHOAL 41025 0950            79      90/  8/ 12 1014.2F
CAPE LOOKOUT     1000            78      20/  7/  7 1014.4R
ONSLOW BAY 41036 NOT AVBL
ONSLOW BAY 41064 0908            79     190/  8/ 12 1013.2F
ONSLOW BAY 41159 0856               83                N/A
WVE H/P(F/S)=  4/ 8

MASNBO INL 41110 0937               83                N/A
WVE H/P(F/S)=  3/ 8

WILM HARBR 41108 0930               83                N/A
WVE H/P(F/S)=  3/ 6

27SE WRITB 41037 0908            79 82  220/  4/  8 1013.3R
FRYING PAN 41013 0950            79 82   90/  4/  6 1013.3S
WVE H/P(F/S)=  5/ 7 SWL H/P/D(F/S/D)=  5/190/ 7

SUNST NRSH 41024 0908            77 84   60/  8/ 10 1014.9F
CAPRS NRSH 41029 NOT AVBL
EDISTO     41004 1000            80     290/  4/  8 1013.8


..........OFFSHORE BUOYS BEYOND 100 NM OFFSHORE...........
.....IN A TRIANGLE---HAT TO BERMUDA TO BAHAMAS TO HAT.....


STATION/POSITION TIME  SKY/WX   TEMP    WIND        PRES    VSBY
                                AIR SEA DIR/SP/G
                 (UTC)          (F)     (DEG/KT/KT) (MB)    (MI)
150E HAT   41001 0950            81 81  200/ 12/ 14 1017.3R
WVE H/P(F/S)=  5/ 8 SWL H/P/D(F/S/D)=  5/220/ 8

W BERMUDA  41048 0950            82     180/ 14/ 17 1021.1S
WVE H/P(F/S)=  5/ 8 SWL H/P/D(F/S/D)=  3/260/ 8

ATLANTIC S 41049 0950            82 84  120/ 12/ 14 1022.4R
WVE H/P(F/S)=  4/ 7 SWL H/P/D(F/S/D)=  3/120/ 7

E BAHAMAS  41046 1000            83     100/ 14/ 17 1019.7
NE BAHAMAS 41047 0950            82 84  130/ 16/ 19 1018.7S
WVE H/P(F/S)=  3/ 8 SWL H/P/D(F/S/D)=  2/120/ 8

120E CANVRL41010 0950            82     170/ 16/ 17 1015.6F

END



USA.gov is the U.S. government's official web portal to all federal, state and local government web resources and services.